Weather History for Hamilton Island, Queensland

Change the Weather History Date:

Sunday, June 2, 2013

  Actual Average Record
Temperature  
Mean Temperature 70 °F -  
Max Temperature 73 °F - - ()
Min Temperature 68 °F - - ()
Cooling Degree Days 6    
Growing Degree Days 20 (Base 50)    
Moisture  
Dew Point 69 °F    
Average Humidity 93    
Maximum Humidity 100    
Minimum Humidity 82    
Precipitation  
Precipitation 0.00 in - - ()
Sea Level Pressure  
Sea Level Pressure 29.95 in    
Wind  
Wind Speed 12 mph ()    
Max Wind Speed 20 mph    
Max Gust Speed -    
T = Trace of Precipitation, MM = Missing Value Source: Averaged Metar Reports

Daily Weather History Graph

Daily Weather History Graph

Search for Another Location

Airport:

Trip Planner

Search our weather history database for the weather conditions in past years. The results will help you decide how hot, cold, wet, or windy it might be!

Date:

Astronomy

Jun. 02, 2013 Rise Set
Actual Time 6:33 AM EST 5:31 PM EST
Civil Twilight 6:09 AM EST 5:55 PM EST
Nautical Twilight 5:41 AM EST 6:22 PM EST
Astronomical Twilight 5:14 AM EST 6:49 PM EST
Moon 12:46 AM EST (6/2) 1:03 PM EST (6/2)
Length of Visible Light 11h 45m
Length of Day
10h 58m
Last Quarter, 37% of the Moon is Illuminated
Jun 2
Last Quarter
Jun 9
New
Jun 17
First Quarter
Jun 23
Full
Jun 30
Last Quarter

Hourly Weather History & Observations

Time (EST) Temp. Dew Point Humidity Pressure Visibility Wind Dir Wind Speed Gust Speed Precip Events Conditions
12:00 AM 70 °F 69 °F 96% 30.00 in - SSE 17.3 mph - -  
12:00 AM 69.8 °F 69.8 °F 100% 30.01 in - SSE 17.3 mph - N/A   Unknown
12:30 AM 69.8 °F 69.8 °F 100% 29.98 in - SSE 15.0 mph - N/A   Unknown
1:00 AM 69.8 °F 69.8 °F 100% 29.98 in - SSE 15.0 mph - N/A   Unknown
1:30 AM 69.8 °F 69.8 °F 100% 29.98 in - SSE 19.6 mph - N/A   Unknown
2:00 AM 69.8 °F 69.8 °F 100% 29.98 in - SSE 18.4 mph - N/A   Unknown
2:30 AM 69.8 °F 69.8 °F 100% 29.98 in - SSE 18.4 mph - N/A   Unknown
3:00 AM 69 °F - % 29.97 in - SSE 16.1 mph - -  
3:00 AM 69.8 °F 69.8 °F 100% 29.95 in - SSE 16.1 mph - N/A   Unknown
3:30 AM - - N/A% 29.95 in - SSE 15.0 mph - N/A   Unknown
4:00 AM - - N/A% 29.95 in - SSE 16.1 mph - N/A   Unknown
4:30 AM 69.8 °F 69.8 °F 100% 29.95 in - SSE 16.1 mph - N/A   Unknown
5:00 AM - - N/A% 29.95 in - SSE 15.0 mph - N/A   Unknown
5:30 AM 68.0 °F 68.0 °F 100% 29.95 in - SSE 16.1 mph - N/A   Unknown
6:00 AM 69 °F - % 29.97 in - SSE 12.7 mph - -  
6:00 AM - - N/A% 29.95 in - SSE 12.7 mph - N/A   Unknown
6:30 AM 68.0 °F 68.0 °F 100% 29.98 in - SSE 15.0 mph - N/A   Unknown
7:00 AM 69.8 °F 69.8 °F 100% 29.98 in - SSE 15.0 mph - N/A   Unknown
7:30 AM 69.8 °F 68.0 °F 94% 29.98 in - SSE 13.8 mph - N/A   Unknown
8:00 AM 69.8 °F 68.0 °F 94% 29.98 in - South 13.8 mph - N/A   Unknown
8:30 AM 69.8 °F 68.0 °F 94% 30.01 in - SSE 15.0 mph - N/A   Unknown
9:00 AM 70 °F 68 °F 91% 30.01 in - SSE 16.1 mph - -  
9:00 AM 69.8 °F 68.0 °F 94% 30.01 in - SSE 16.1 mph - N/A   Unknown
9:30 AM 71.6 °F 69.8 °F 94% 30.01 in - South 12.7 mph - N/A   Unknown
10:00 AM 71.6 °F 68.0 °F 88% 29.98 in - SSE 13.8 mph - N/A   Unknown
10:30 AM 71.6 °F 68.0 °F 88% 29.98 in - South 13.8 mph - N/A   Unknown
11:00 AM 71.6 °F 68.0 °F 88% 29.98 in - SSE 13.8 mph - N/A   Unknown
11:30 AM 71.6 °F 68.0 °F 88% 29.95 in - SSE 13.8 mph - N/A   Unknown
12:00 PM 72 °F 68 °F 84% 29.96 in - SSE 13.8 mph - -  
12:00 PM 71.6 °F 68.0 °F 88% 29.95 in - SSE 13.8 mph - N/A   Unknown
12:30 PM 73.4 °F 68.0 °F 83% 29.92 in - SSE 13.8 mph - N/A   Unknown
1:00 PM 73.4 °F 68.0 °F 83% 29.92 in - SSE 12.7 mph - N/A   Unknown
1:30 PM 73.4 °F 68.0 °F 83% 29.92 in - SSE 12.7 mph - N/A   Unknown
2:00 PM 73.4 °F 68.0 °F 83% 29.89 in - SSE 12.7 mph - N/A   Unknown
2:30 PM 73.4 °F 68.0 °F 83% 29.89 in - SE 11.5 mph - N/A   Unknown
3:00 PM 72 °F 68 °F 82% 29.90 in - SE 10.4 mph - -  
3:00 PM 71.6 °F 68.0 °F 88% 29.89 in - SE 10.4 mph - N/A   Unknown
3:30 PM 73.4 °F 68.0 °F 83% 29.89 in - ESE 8.1 mph - N/A   Unknown
4:00 PM 71.6 °F 68.0 °F 88% 29.89 in - ESE 6.9 mph - N/A   Unknown
4:30 PM 71.6 °F 68.0 °F 88% 29.89 in - East 9.2 mph - N/A   Unknown
5:00 PM 71.6 °F 68.0 °F 88% 29.92 in - East 11.5 mph - N/A   Unknown
5:30 PM 71.6 °F 68.0 °F 88% 29.92 in - East 11.5 mph - N/A   Unknown
6:00 PM 71 °F 69 °F 89% 29.92 in - East 11.5 mph - -  
6:00 PM 71.6 °F 68.0 °F 88% 29.92 in - East 11.5 mph - N/A   Unknown
6:30 PM 71.6 °F 69.8 °F 94% 29.92 in - East 9.2 mph - N/A   Unknown
7:00 PM 71.6 °F 69.8 °F 94% 29.95 in - East 9.2 mph - N/A   Unknown
7:30 PM 69.8 °F 69.8 °F 100% 29.92 in - East 9.2 mph - N/A   Unknown
8:00 PM 69.8 °F 69.8 °F 100% 29.95 in - ENE 6.9 mph - N/A   Unknown
8:30 PM 69.8 °F 69.8 °F 100% 29.95 in - East 2.3 mph - N/A   Unknown
9:00 PM 70 °F 69 °F 95% 29.95 in - Calm Calm - -  
9:00 PM 69.8 °F 69.8 °F 100% 29.95 in - Calm Calm - N/A   Unknown
9:30 PM 69.8 °F 69.8 °F 100% 29.95 in - NW 3.5 mph - N/A   Unknown
10:00 PM 69.8 °F 69.8 °F 100% 29.95 in - Calm Calm - N/A   Unknown
10:30 PM 69.8 °F 69.8 °F 100% 29.95 in - Calm Calm - N/A   Unknown
11:00 PM 69.8 °F 69.8 °F 100% 29.92 in - Calm Calm - N/A   Unknown
11:30 PM 69.8 °F 69.8 °F 100% 29.92 in - Calm Calm - N/A   Unknown